Regional Weather Roundup
Issued by NWS

Home | Current Version | Previous Version | Graphics & Text | Print | Product List | Glossary On
Versions: 1 2 3 4 5 6 7 8 9 10 11 12 13 14 15 16 17 18 19 20 21 22 23 24 25 26 27 28 29 30 31 32 33 34 35 36 37 38 39 40 41 42 43 44 45 46 47 48 49 50
000
ASUS43 KBIS 221320
RWRND

NORTH DAKOTA REGIONAL WEATHER ROUNDUP
NATIONAL WEATHER SERVICE BISMARCK ND
800 AM CDT TUE JUL 22 2014

NOTE: "FAIR" INDICATES FEW OR NO CLOUDS BELOW 12,000 FEET WITH NO
SIGNIFICANT WEATHER AND/OR OBSTRUCTIONS TO VISIBILITY.


NDZ001>003-009>011-017-221400-
NORTHWEST NORTH DAKOTA

CITY           SKY/WX    TMP DP  RH WIND       PRES   REMARKS
WILLISTON      MOSUNNY   63  59  87 CALM      30.15R
MINOT          SUNNY     63  59  87 VRB6      30.12R
MINOT AFB      SUNNY     64  63  99 N6        30.12R
$$

NDZ018>021-031>035-040>046-221400-
SOUTHWEST NORTH DAKOTA

CITY           SKY/WX    TMP DP  RH WIND       PRES   REMARKS
BISMARCK       CLOUDY    69  64  84 CALM      30.16R
DICKINSON      SUNNY     60  59  96 CALM      30.16R FOG
GARRISON         N/A     61  60  97 NW3       30.15R
HETTINGER ARPT MOSUNNY   59  57  93 CALM      30.19R FOG
$$

NDZ004>008-012>016-024-026-027-054-221400-
NORTHEAST NORTH DAKOTA

CITY           SKY/WX    TMP DP  RH WIND       PRES   REMARKS
GRAND FORKS    SUNNY     65  60  84 NW10      30.04R
GRND FRKS AFB  SUNNY     65  63  92 NW9       30.06R
DEVILS LAKE    SUNNY     64  57  77 N8        30.10R
$$

NDZ022-023-025-028>030-036>039-047>053-221400-
SOUTHEAST NORTH DAKOTA

CITY           SKY/WX    TMP DP  RH WIND       PRES   REMARKS
FARGO          SUNNY     67  61  81 NW13      30.04R
JAMESTOWN      SUNNY     66  61  84 NW10      30.10R
$$



USA.gov is the U.S. government's official web portal to all federal, state and local government web resources and services.